TimeCDT,TemperatureF,Dew PointF,Humidity,Sea Level PressureIn,VisibilityMPH,Wind Direction,Wind SpeedMPH,Gust SpeedMPH,PrecipitationIn,Events,Conditions,WindDirDegrees,DateUTC
12:54 AM,1.9,-7.1,66,30.11,10.0,Calm,Calm,-,N/A,,Clear,0,2014-03-13 05:54:00
1:54 AM,1.0,-6.0,72,30.09,10.0,SE,3.5,-,N/A,,Clear,140,2014-03-13 06:54:00
2:54 AM,1.0,-7.1,69,30.07,10.0,Calm,Calm,-,N/A,,Clear,0,2014-03-13 07:54:00
3:54 AM,-0.0,-7.1,72,30.04,10.0,SE,3.5,-,N/A,,Clear,140,2014-03-13 08:54:00
4:54 AM,-0.0,-6.0,76,30.03,10.0,SE,3.5,-,N/A,,Scattered Clouds,130,2014-03-13 09:54:00
5:54 AM,1.9,-5.1,72,30.04,10.0,SSE,4.6,-,N/A,,Overcast,150,2014-03-13 10:54:00
6:54 AM,5.0,-4.0,66,30.01,10.0,SSE,5.8,-,N/A,,Overcast,160,2014-03-13 11:54:00
7:54 AM,7.0,-4.0,61,29.99,10.0,South,6.9,-,N/A,,Overcast,170,2014-03-13 12:54:00
8:54 AM,10.0,-2.0,58,29.97,10.0,South,8.1,-,N/A,,Overcast,170,2014-03-13 13:54:00
9:54 AM,12.9,-0.0,56,29.95,10.0,South,6.9,-,N/A,,Overcast,170,2014-03-13 14:54:00
10:54 AM,16.0,3.9,59,29.92,10.0,South,6.9,-,N/A,,Overcast,170,2014-03-13 15:54:00
11:54 AM,18.0,5.0,57,29.89,10.0,SSE,6.9,-,N/A,,Overcast,160,2014-03-13 16:54:00
12:54 PM,21.9,8.1,55,29.85,10.0,South,9.2,-,N/A,,Overcast,180,2014-03-13 17:54:00
1:05 PM,23.0,8.6,54,29.76,10.0,South,9.2,-,N/A,,Overcast,170,2014-03-13 18:05:00
1:54 PM,28.0,12.9,53,29.81,10.0,South,10.4,-,N/A,,Overcast,180,2014-03-13 18:54:00
2:23 PM,30.2,15.8,55,29.72,10.0,South,10.4,-,N/A,,Mostly Cloudy,180,2014-03-13 19:23:00
2:54 PM,32.0,17.1,54,29.77,10.0,South,10.4,-,N/A,,Partly Cloudy,180,2014-03-13 19:54:00
3:54 PM,34.0,18.0,52,29.75,10.0,South,9.2,-,N/A,,Clear,190,2014-03-13 20:54:00
4:54 PM,35.1,19.9,54,29.74,10.0,South,11.5,-,N/A,,Clear,180,2014-03-13 21:54:00
5:54 PM,36.0,23.0,59,29.73,10.0,SSW,10.4,-,N/A,,Clear,210,2014-03-13 22:54:00
6:54 PM,34.0,23.0,64,29.72,10.0,South,11.5,-,N/A,,Clear,190,2014-03-13 23:54:00
7:54 PM,30.9,21.9,69,29.70,10.0,SE,4.6,-,N/A,,Clear,140,2014-03-14 00:54:00
8:54 PM,28.9,19.9,69,29.68,10.0,SE,6.9,-,N/A,,Clear,140,2014-03-14 01:54:00
9:54 PM,28.9,19.9,69,29.65,10.0,SSE,6.9,-,N/A,,Clear,160,2014-03-14 02:54:00
10:54 PM,30.0,21.0,69,29.61,10.0,South,6.9,-,N/A,,Clear,170,2014-03-14 03:54:00
11:54 PM,28.9,21.9,75,29.58,10.0,South,6.9,-,N/A,,Clear,170,2014-03-14 04:54:00